Hot Springs, VA

4:56 AM EDT on August 27, 2016 (GMT -0400)
Ingalls

Weather History for KHSP - January, 2001

Change the Weather History Date:

Monday, January 8, 2001

  Actual Average Record
Temperature  
Mean Temperature 27 °F -  
Max Temperature 35 °F 34 °F 60 °F (1998)
Min Temperature 19 °F 20 °F -6 °F (2015)
Degree Days  
Heating Degree Days 38    
Moisture  
Dew Point 26 °F    
Average Humidity 89    
Maximum Humidity 100    
Minimum Humidity 60    
Precipitation  
Precipitation 0.00 in - - ()
Sea Level Pressure  
Sea Level Pressure 29.71 in    
Wind  
Wind Speed 10 mph (WNW)    
Max Wind Speed 18 mph    
Max Gust Speed 28 mph    
Visibility 5 miles    
Events      
Averages and records for this station are not official NWS values.
T = Trace of Precipitation, MM = Missing Value Source: NWS Daily Summary

Daily Weather History Graph

Daily Weather History Graph

Search for Another Location

Airport or City:

Trip Planner

Search our weather history database for the weather conditions in past years. The results will help you decide how hot, cold, wet, or windy it might be!

Date:

Astronomy

Jan. 08, 2001 Rise Set
Actual Time 7:35 AM EST 5:17 PM EST
Civil Twilight 7:06 AM EST 5:46 PM EST
Nautical Twilight 6:33 AM EST 6:18 PM EST
Astronomical Twilight 6:01 AM EST 6:50 PM EST
Moon 4:13 PM EST (1/8) 6:14 AM EST (1/8)
Length of Visible Light 10h 39m
Length of Day
9h 41m
Waxing Gibbous, 98% of the Moon is Illuminated
Jan 8
Waxing Gibbous
Jan 9
Full
Jan 16
Last Quarter
Jan 24
New
Feb 1
First Quarter

Hourly Weather History & Observations

Time (EST) Temp. Windchill Dew Point Humidity Pressure Visibility Wind Dir Wind Speed Gust Speed Precip Events Conditions
12:19 AM 35.6 °F 27.5 °F 23.0 °F 60% 29.77 in 10.0 mi West 11.5 mph - N/A   Clear
12:39 AM 35.6 °F 27.5 °F 24.8 °F 65% 29.77 in 10.0 mi West 11.5 mph - N/A   Clear
12:59 AM 35.6 °F 27.5 °F 24.8 °F 65% 29.77 in 10.0 mi West 11.5 mph - N/A   Clear
1:19 AM 35.6 °F 27.5 °F 24.8 °F 65% 29.76 in 10.0 mi West 11.5 mph - N/A   Clear
1:39 AM 35.6 °F 27.5 °F 24.8 °F 65% 29.76 in 10.0 mi West 11.5 mph - N/A   Clear
1:59 AM 35.6 °F 27.5 °F 24.8 °F 65% 29.76 in 10.0 mi West 11.5 mph - N/A   Scattered Clouds
2:19 AM 35.6 °F 27.5 °F 24.8 °F 65% 29.76 in 10.0 mi West 11.5 mph - N/A   Mostly Cloudy
2:39 AM 35.6 °F 27.5 °F 24.8 °F 65% 29.75 in 10.0 mi West 11.5 mph - N/A   Mostly Cloudy
2:59 AM 35.6 °F 28.0 °F 24.8 °F 65% 29.75 in 10.0 mi West 10.4 mph - N/A   Mostly Cloudy
3:19 AM 35.6 °F 28.0 °F 24.8 °F 65% 29.75 in 10.0 mi West 10.4 mph - N/A   Overcast
3:39 AM 35.6 °F 28.6 °F 24.8 °F 65% 29.74 in 10.0 mi West 9.2 mph - N/A   Overcast
3:59 AM 35.6 °F 29.2 °F 24.8 °F 65% 29.73 in 10.0 mi West 8.1 mph - N/A   Overcast
4:19 AM 33.8 °F 27.7 °F 24.8 °F 70% 29.73 in 10.0 mi West 6.9 mph - N/A   Overcast
4:39 AM 35.6 °F 29.2 °F 24.8 °F 65% 29.73 in 10.0 mi West 8.1 mph - N/A   Overcast
4:59 AM 33.8 °F 28.6 °F 24.8 °F 70% 29.72 in 10.0 mi West 5.8 mph - N/A   Overcast
5:19 AM 33.8 °F 26.4 °F 28.4 °F 81% 29.72 in 4.0 mi West 9.2 mph - N/A   Overcast
5:39 AM 33.8 °F 27.7 °F 28.4 °F 81% 29.71 in 5.0 mi West 6.9 mph - N/A   Overcast
5:59 AM 32.0 °F 27.5 °F 30.2 °F 93% 29.72 in 4.0 mi West 4.6 mph - N/A   Overcast
6:19 AM 32.0 °F 27.5 °F 30.2 °F 93% 29.72 in 3.0 mi West 4.6 mph - N/A   Overcast
6:39 AM 32.0 °F 25.6 °F 28.4 °F 87% 29.72 in 2.0 mi WNW 6.9 mph - N/A   Overcast
7:01 AM 30.2 °F 25.4 °F 28.4 °F 93% 29.72 in 1.2 mi West 4.6 mph - N/A   Overcast
7:19 AM 30.2 °F 22.6 °F 30.2 °F 100% 29.72 in 0.5 mi West 8.1 mph - N/A   Overcast
7:39 AM 30.2 °F 23.4 °F 30.2 °F 100% 29.72 in 0.2 mi West 6.9 mph - N/A   Overcast
7:59 AM 30.2 °F 24.3 °F 30.2 °F 100% 29.72 in 0.2 mi West 5.8 mph - N/A   Overcast
8:19 AM 30.2 °F 23.4 °F 30.2 °F 100% 29.72 in 0.2 mi West 6.9 mph - N/A   Overcast
8:41 AM 30.2 °F 22.6 °F 30.2 °F 100% 29.72 in 0.2 mi West 8.1 mph - N/A   Overcast
9:00 AM 30.2 °F 21.9 °F 30.2 °F 100% 29.71 in 0.2 mi WNW 9.2 mph - N/A   Overcast
9:19 AM 30.2 °F 21.3 °F 30.2 °F 100% 29.71 in 0.2 mi WNW 10.4 mph - N/A   Overcast
9:39 AM 30.2 °F 21.3 °F 30.2 °F 100% 29.70 in 0.2 mi WNW 10.4 mph - N/A   Overcast
9:59 AM 30.2 °F 20.8 °F 30.2 °F 100% 29.70 in 0.2 mi WNW 11.5 mph - N/A   Overcast
10:19 AM 30.2 °F 21.9 °F 30.2 °F 100% 29.70 in 0.2 mi WNW 9.2 mph - N/A   Overcast
10:39 AM 30.2 °F 21.9 °F 30.2 °F 100% 29.70 in 0.2 mi WNW 9.2 mph - N/A   Overcast
10:59 AM 30.2 °F 21.9 °F 30.2 °F 100% 29.70 in 0.2 mi WNW 9.2 mph - N/A   Overcast
11:20 AM 30.2 °F 22.6 °F 30.2 °F 100% 29.69 in 0.2 mi WNW 8.1 mph - N/A   Overcast
11:40 AM 30.2 °F 21.9 °F 30.2 °F 100% 29.68 in 0.2 mi WNW 9.2 mph - N/A   Overcast
12:00 PM 30.2 °F 21.3 °F 30.2 °F 100% 29.67 in 0.2 mi WNW 10.4 mph - N/A   Overcast
12:20 PM 30.2 °F 21.3 °F 30.2 °F 100% 29.66 in 0.2 mi WNW 10.4 mph - N/A   Overcast
12:40 PM 30.2 °F 21.3 °F 30.2 °F 100% 29.65 in 0.2 mi WNW 10.4 mph - N/A   Overcast
1:00 PM 28.4 °F 19.1 °F 28.4 °F 100% 29.65 in 0.2 mi WNW 10.4 mph - N/A   Overcast
1:20 PM 28.4 °F 19.7 °F 28.4 °F 100% 29.64 in 0.2 mi NW 9.2 mph - N/A   Overcast
1:40 PM 28.4 °F 18.0 °F 28.4 °F 100% 29.64 in 0.2 mi NW 12.7 mph - N/A   Overcast
2:02 PM 28.4 °F 19.1 °F 28.4 °F 100% 29.64 in 0.2 mi NNW 10.4 mph - N/A   Overcast
2:20 PM 28.4 °F 19.1 °F 28.4 °F 100% 29.63 in 0.2 mi NW 10.4 mph 16.1 mph N/A   Overcast
2:40 PM 28.4 °F 19.1 °F 28.4 °F 100% 29.63 in 0.2 mi NW 10.4 mph 17.3 mph N/A   Overcast
3:00 PM 28.4 °F 18.0 °F 28.4 °F 100% 29.64 in 5.0 mi NW 12.7 mph 18.4 mph N/A   Overcast
3:22 PM 26.6 °F 15.2 °F 26.6 °F 100% 29.65 in 1.2 mi NW 13.8 mph 19.6 mph N/A   Overcast
3:40 PM 26.6 °F 13.8 °F 26.6 °F 100% 29.66 in 4.0 mi NW 17.3 mph 23.0 mph N/A   Overcast
4:00 PM 24.8 °F 12.9 °F 24.8 °F 100% 29.66 in 7.0 mi NW 13.8 mph 20.7 mph N/A   Overcast
4:20 PM 24.8 °F 11.9 °F 24.8 °F 100% 29.67 in 7.0 mi NW 16.1 mph 21.9 mph N/A   Overcast
4:40 PM 24.8 °F 11.5 °F 24.8 °F 100% 29.66 in 7.0 mi NW 17.3 mph 21.9 mph N/A   Overcast
5:00 PM 24.8 °F 11.5 °F 23.0 °F 93% 29.68 in 7.0 mi NW 17.3 mph 25.3 mph N/A   Overcast
5:20 PM 23.0 °F 11.1 °F 21.2 °F 93% 29.69 in 7.0 mi NW 12.7 mph 20.7 mph N/A   Overcast
5:40 PM 23.0 °F 12.4 °F 21.2 °F 93% 29.69 in 10.0 mi NW 10.4 mph 16.1 mph N/A   Overcast
6:01 PM 23.0 °F 13.1 °F 21.2 °F 93% 29.70 in 10.0 mi NW 9.2 mph - N/A   Overcast
6:20 PM 23.0 °F 13.9 °F 21.2 °F 93% 29.70 in 10.0 mi WNW 8.1 mph 17.3 mph N/A   Overcast
6:40 PM 23.0 °F 13.9 °F 21.2 °F 93% 29.71 in 10.0 mi WNW 8.1 mph - N/A   Overcast
7:00 PM 23.0 °F 11.1 °F 21.2 °F 93% 29.70 in 10.0 mi NW 12.7 mph 19.6 mph N/A   Overcast
7:40 PM 21.2 °F 8.3 °F 19.4 °F 93% 29.71 in 10.0 mi NW 13.8 mph 21.9 mph N/A   Overcast
8:02 PM 21.2 °F 9.5 °F 19.4 °F 93% 29.71 in 10.0 mi NW 11.5 mph 20.7 mph N/A   Overcast
8:20 PM 21.2 °F 10.1 °F 19.4 °F 93% 29.73 in 10.0 mi NW 10.4 mph - N/A   Overcast
8:40 PM 19.4 °F 7.2 °F 17.6 °F 93% 29.73 in 10.0 mi WNW 11.5 mph 19.6 mph N/A   Overcast
9:00 PM 19.4 °F 7.2 °F 17.6 °F 93% 29.73 in 10.0 mi NW 11.5 mph 18.4 mph N/A   Overcast
9:20 PM 19.4 °F 4.5 °F 17.6 °F 93% 29.72 in 10.0 mi NW 17.3 mph 23.0 mph N/A   Overcast
9:40 PM 19.4 °F 4.1 °F 15.8 °F 86% 29.73 in 10.0 mi WNW 18.4 mph 27.6 mph N/A   Overcast
10:00 PM 19.4 °F 3.2 °F 15.8 °F 86% 29.73 in 10.0 mi WNW 20.7 mph 29.9 mph N/A   Overcast
10:22 PM 19.4 °F 5.0 °F 17.6 °F 93% 29.74 in 10.0 mi WNW 16.1 mph 21.9 mph N/A   Overcast
10:40 PM 19.4 °F 6.0 °F 15.8 °F 86% 29.74 in 10.0 mi WNW 13.8 mph 24.2 mph N/A   Overcast
11:02 PM 19.4 °F 5.0 °F 15.8 °F 86% 29.74 in 10.0 mi WNW 16.1 mph 23.0 mph N/A   Overcast
11:20 PM 19.4 °F 6.0 °F 15.8 °F 86% 29.74 in 10.0 mi WNW 13.8 mph 23.0 mph N/A   Overcast
11:40 PM 17.6 °F 2.7 °F 17.6 °F 100% 29.74 in 10.0 mi WNW 16.1 mph 23.0 mph N/A   Overcast